Location: Auckland
(36.8500°S, 174.7800°E)
Time: 21:14:25
(UTC+12:00)

ISS - Pass Details

Date: 18 March 2026
Orbit: 416 x 425 km, 51.6° (Epoch: 20 April)

Event Time Altitude Azimuth Distance (km) Brightness Sun altitude
Exits shadow 05:22:20 23° 52° (NE) 948 -1.7 -24.1°
Drops below altitude 10° 05:25:00 10° 104° (ESE) 1,513 0.1 -23.6°
Sets 05:27:23 0° 118° (ESE) 2,386 1.5 -23.2°
